Regional Weather Roundup
Issued by NWS

Home | Current Version | Previous Version | Text Only | Print | Product List | Glossary Off
Versions: 1 2 3 4 5 6 7 8 9 10 11 12 13 14 15 16 17 18 19 20 21 22 23 24 25 26 27 28 29 30 31 32 33 34 35 36 37 38 39 40 41 42 43 44 45 46 47 48 49 50

802
ASUS43 KIND 231159
RWRIN

WEATHER ROUNDUP FOR INDIANA
NATIONAL WEATHER SERVICE INDIANAPOLIS IN
700 AM EST TUE JAN 23 2018

NOTE: "FAIR" INDICATES FEW OR NO CLOUDS BELOW 12,000 FEET WITH NO
SIGNIFICANT WEATHER AND/OR OBSTRUCTIONS TO VISIBILITY.

* - STATION DOES NOT REPORT WEATHER SUCH AS PRECIPITATION OR FOG.

+ - STATION NOT QUALITY CONTROLLED BY THE NATIONAL WEATHER SERVICE.
    USE DATA WITH CAUTION...ESPECIALLY DEWPOINT AND RELATIVE
    HUMIDITY OBSERVATIONS.

INZ001>003-010>013-019-020-231300-
NORTHWEST INDIANA

CITY           SKY/WX    TMP DP  RH WIND       PRES   REMARKS
GARY /AIRPORT/ LGT SNOW  36  34  93 W14       29.60R WCI  27
KNOX *+        CLOUDY    36  32  87 SW16      29.60R WCI  26
MONTICELLO +   DRIZZLE   35  33  95 W12G18    29.64R WCI  26
6HR MIN TEMP:  35; 6HR MAX TEMP:  37; 6HR PCP:  0.01;


$$

LMZ046-743>745-231300-
SOUTHERN LAKE MICHIGAN

STATION/POSITION TIME  TEMP    WIND        PRES    WAVE
                       AIR SEA DIR/SP/G            HT
                 (UTC) (F)     (DEG/KT/KT) (MB)    (FT)
BURNS HARBOR     1140   35     240/ 12/ 16 1002.7R
MICHIGAN CITY    1130   35     230/ 19/ 22   N/A

$$

INZ004-005-014>016-021>024-231300-
NORTH CENTRAL INDIANA

CITY           SKY/WX    TMP DP  RH WIND       PRES   REMARKS
GOSHEN         LGT RAIN  36  33  89 SW16      29.58R WCI  26
6HR MIN TEMP:  35; 6HR MAX TEMP:  39; 6HR PCP:  0.04;

PERU/GRISSOM   LGT RAIN  36  36 100 SW15      29.63R WCI  26
6HR MIN TEMP:  34; 6HR MAX TEMP:  37; 6HR PCP:  0.03;

SOUTH BEND     CLOUDY    35  32  88 SW13      29.58R WCI  26
6HR MIN TEMP:  34; 6HR MAX TEMP:  37;


$$

INZ006>009-017-018-025>027-231300-
NORTHEAST INDIANA

CITY           SKY/WX    TMP DP  RH WIND       PRES   REMARKS
FORT WAYNE     LGT RAIN  37  34  89 SW17      29.62R WCI  27
6HR MIN TEMP:  35; 6HR MAX TEMP:  38; 6HR PCP:  0.07;

KENDALLVILLE + LGT RAIN  35  34  97 SW10      29.58R WCI  27

$$

INZ028-029-035-036-043>045-051>053-231300-
WEST CENTRAL INDIANA

CITY           SKY/WX    TMP DP  RH WIND       PRES   REMARKS
GREENCASTLE +  LGT SNOW  32  32 100 SW8       29.70R WCI  25
LAFAYETTE      CLOUDY    34  32  92 W13       29.67R WCI  25
6HR MIN TEMP:  33; 6HR MAX TEMP:  39; 6HR PCP: TRACE;

TERRE HAUTE    FLURRIES  33  31  92 SW12      29.73R WCI  24
6HR MIN TEMP:  33; 6HR MAX TEMP:  41; 6HR PCP:  0.09;


$$

INZ030>032-037>040-046>048-054>057-064-065-231300-
CENTRAL INDIANA

CITY           SKY/WX    TMP DP  RH WIND       PRES   REMARKS
COLUMBUS       LGT RAIN  36  30  80 W17G25    29.73  WCI  25
GREENWOOD *+   CLOUDY    36  32  85 SW12G18   29.70R WCI  28
INDIANAPOLIS   FLURRIES  34  32  92 SW20G25   29.69R WCI  23
6HR MIN TEMP:  34; 6HR MAX TEMP:  41; 6HR PCP:  0.06;

-EAGLE CREEK   CLOUDY    34  30  85 SW10G21   29.68R WCI  26
6HR MIN TEMP:  34; 6HR MAX TEMP:  42; 6HR PCP:  0.06;

MT COMFORT *+  CLOUDY    34  34 100 SW15G25   29.69R WCI  24
SHELBYVILLE    NOT AVBL

$$

INZ033-034-041-042-049-050-058-059-231300-
EAST CENTRAL INDIANA

CITY           SKY/WX    TMP DP  RH WIND       PRES   REMARKS
MUNCIE         CLOUDY    38  33  82 SW10      29.64R WCI  31
6HR MIN TEMP:  38; 6HR MAX TEMP:  41; 6HR PCP:  0.04;

RICHMOND +     FAIR      34  32  93 SW15      29.67R WCI  24

$$

INZ060-061-067>069-081>083-085>088-231300-
SOUTHWEST INDIANA

CITY           SKY/WX    TMP DP  RH WIND       PRES   REMARKS
EVANSVILLE     MOCLDY    39  31  72 W18G26    29.83R WCI  30
6HR MIN TEMP:  38; 6HR MAX TEMP:  45; 6HR PCP: TRACE;

HUNTINGBURG +  CLOUDY    39  30  70 W18       29.81R WCI  30
6HR MIN TEMP:  37; 6HR MAX TEMP:  45; 6HR PCP:  0.01;


$$

INZ062-063-066-070>080-084-089>092-231300-
SOUTH CENTRAL AND SOUTHEAST INDIANA

CITY           SKY/WX    TMP DP  RH WIND       PRES   REMARKS
BLOOMINGTON    FLURRIES  35  31  85 SW10      29.72R WCI  27
6HR MIN TEMP:  35; 6HR MAX TEMP:  44; 6HR PCP:  0.03;

FRENCH LICK *+ CLOUDY    36  28  75 SW16G24   29.77R WCI  26
MADISON *+     CLOUDY    39  30  70 SW16G25   29.76R WCI  30
SEYMOUR +      DRIZZLE   37  32  81 W20G28    29.75R WCI  27

$$





USA.gov is the U.S. government's official web portal to all federal, state and local government web resources and services.